Location: Campillo
(40.8621°N, 4.2488°W)
Time: 20:20:51
(UTC+00:00)

Cosmos 1933 Rocket - Pass Details

Date: 27 September 2021
Orbit: 607 x 629 km, 82.5° (Epoch: 25 October)

Event Time Altitude Azimuth Distance (km) Brightness Sun altitude
Rises 03:34:57 0° 358° (N) 2,901 7.3 -29.2°
Reaches altitude 10° 03:37:16 10° 5° (N) 1,995 6.5 -28.8°
Maximum altitude 03:41:32 46° 79° (E) 839 4.5 -28.1°
Enters shadow 03:43:00 33° 128° (SE) 1,050 4.9 -27.8°
